Change the Weather History Date:

Saturday, November 5, 2011

  Actual Average Record
Temperature  
Mean Temperature 44 °F 56 °F  
Max Temperature 54 °F 69 °F 82 °F (2012)
Min Temperature 33 °F 42 °F 33 °F (2011)
Degree Days  
Heating Degree Days 21    
Month to date heating degree days 71  
Since 1 July heating degree days 224  
Cooling Degree Days 0    
Month to date cooling degree days 0  
Year to date cooling degree days 345  
Moisture  
Dew Point 43 °F    
Average Humidity 77    
Maximum Humidity 100    
Minimum Humidity 54    
Precipitation  
Precipitation 0.76 in 0.15 in 0.76 in (2011)
Month to date precipitation 0.76 0.76  
Year to date precipitation 25.05 25.32  
Since 1 July precipitation 2.61 3.23  
Sea Level Pressure  
Sea Level Pressure 29.90 in    
Wind  
Wind Speed 3 mph (SSE)    
Max Wind Speed 15 mph    
Max Gust Speed 18 mph    
Visibility 7 miles    
Events Fog , Rain    
T = Trace of Precipitation, MM = Missing Value Source: NWS Daily Summary

Daily Weather History Graph

Daily Weather History Graph

Search for Another Location

Airport or City:

Trip Planner

Search our weather history database for the weather conditions in past years. The results will help you decide how hot, cold, wet, or windy it might be!

Date:

Astronomy

Nov. 05, 2011 Rise Set
Actual Time 7:41 AM PDT 6:07 PM PDT
Civil Twilight 7:14 AM PDT 6:34 PM PDT
Nautical Twilight 6:42 AM PDT 7:06 PM PDT
Astronomical Twilight 6:11 AM PDT 7:37 PM PDT
Moon 3:24 PM PDT (11/5) 3:00 AM PDT (11/5)
Length of Visible Light 11h 20m
Length of Day
10h 25m
Waxing Gibbous, 79% of the Moon is Illuminated
Nov 5
Waxing Gibbous
Nov 10
Full
Nov 18
Last Quarter
Nov 24
New
Dec 2
First Quarter

Hourly Weather History & Observations

Time (PDT) Temp. Windchill Dew Point Humidity Pressure Visibility Wind Dir Wind Speed Gust Speed Precip Events Conditions
12:53 AM 37.0 °F - 34.0 °F 89% 29.92 in 10.0 mi Calm Calm - N/A   Clear
2:53 AM 36.0 °F 33.3 °F 33.1 °F 89% 29.92 in 10.0 mi East 3.5 mph - N/A   Clear
3:53 AM 33.1 °F - 30.9 °F 92% 29.93 in 10.0 mi Calm Calm - N/A   Clear
5:53 AM 39.0 °F - 36.0 °F 89% 29.94 in 10.0 mi Calm Calm - N/A   Mostly Cloudy
6:53 AM 39.0 °F - 36.0 °F 89% 29.94 in 10.0 mi Calm Calm - N/A   Overcast
7:53 AM 39.0 °F - 36.0 °F 89% 29.96 in 10.0 mi Calm Calm - N/A   Overcast
8:53 AM 41.0 °F - 37.0 °F 86% 29.98 in 10.0 mi Calm Calm - N/A   Overcast
9:53 AM 45.0 °F - 39.0 °F 80% 29.99 in 10.0 mi Calm Calm - N/A   Overcast
10:53 AM 48.9 °F - 37.9 °F 66% 29.99 in 10.0 mi Calm Calm - 0.00 in   Overcast
12:53 PM 53.1 °F - 37.0 °F 55% 29.97 in 10.0 mi Calm Calm - 0.00 in   Overcast
1:53 PM 53.1 °F - 44.1 °F 71% 29.95 in 10.0 mi SSW 6.9 mph - 0.00 in Rain Light Rain
2:49 PM 53.6 °F - 44.6 °F 72% 29.93 in 10.0 mi SSW 6.9 mph - 0.01 in Rain Light Rain
2:53 PM 53.1 °F - 45.0 °F 74% 29.92 in 10.0 mi South 5.8 mph - 0.01 in Rain Light Rain
3:02 PM 51.8 °F - 46.4 °F 82% 29.93 in 9.0 mi South 5.8 mph - 0.00 in Rain Light Rain
3:17 PM 51.8 °F - 46.4 °F 82% 29.93 in 2.0 mi South 4.6 mph - 0.01 in Rain Rain
3:39 PM 51.8 °F - 48.2 °F 88% 29.91 in 2.0 mi South 4.6 mph - 0.06 in Rain Rain
3:53 PM 51.1 °F - 48.0 °F 89% 29.90 in 2.0 mi South 5.8 mph - 0.09 in Rain Rain
4:53 PM 50.0 °F - 48.9 °F 96% 29.88 in 2.0 mi SE 6.9 mph - 0.11 in Rain Rain
5:53 PM 50.0 °F - 48.0 °F 93% 29.85 in 2.0 mi East 8.1 mph - 0.25 in Rain Rain
6:00 PM 50.0 °F - 48.2 °F 94% 29.85 in 2.5 mi East 10.4 mph - 0.01 in Rain Rain
6:09 PM 50.0 °F - 48.2 °F 94% 29.85 in 2.5 mi East 9.2 mph - 0.06 in Rain Heavy Rain
6:53 PM 50.0 °F - 48.0 °F 93% 29.83 in 2.5 mi SE 10.4 mph - 0.24 in Rain Light Rain
7:53 PM 51.1 °F - 48.9 °F 92% 29.83 in 2.5 mi Calm Calm - 0.05 in Rain Light Rain
8:00 PM 51.8 °F - 48.2 °F 88% 29.84 in 10.0 mi ESE 6.9 mph - 0.00 in Rain Light Rain
8:53 PM 51.1 °F - 48.9 °F 92% 29.83 in 10.0 mi South 3.5 mph - 0.00 in   Overcast
9:53 PM 48.0 °F - 46.9 °F 96% 29.84 in 7.0 mi Calm Calm - N/A   Overcast
10:03 PM 48.2 °F - 46.4 °F 93% 29.86 in 7.0 mi Calm Calm - N/A   Overcast
10:22 PM 48.2 °F - 46.4 °F 93% 29.87 in 5.0 mi WNW 5.8 mph - N/A   Overcast
10:53 PM 46.9 °F - 46.0 °F 97% 29.86 in 10.0 mi NW 6.9 mph - N/A   Scattered Clouds
11:47 PM 44.6 °F 42.2 °F 42.8 °F 93% 29.89 in 1.5 mi West 4.6 mph - 0.01 in   Clear
11:53 PM 43.0 °F 41.3 °F 43.0 °F 100% 29.87 in 0.5 mi West 3.5 mph - 0.01 in Fog Fog